{"data":{"norad_id":63134,"epoch":"2026-09-20T23:25:50.346624Z","epoch_age_seconds":121075,"freshness":"FRESH","line1":"1 63134U 25043C   26263.97627716  .00343097  00000+0  25837-2 0  9997","line2":"2 63134  43.0016 153.7731 0001827 263.6587  96.4072 15.70699180 90064","mean_motion":15.7069918,"eccentricity":0.0001827,"inclination_deg":43.0016,"raan_deg":153.7731,"arg_perigee_deg":263.6587,"mean_anomaly_deg":96.4072,"bstar":0.0025837,"rev_number":9006,"period_min":91.678917155862,"perigee_km":355.66709073593,"apogee_km":358.12807237203,"semimajor_km":6735.034581554,"source":"CELESTRAK","updated_at":"2026-09-22T09:00:49.790059Z"}}